Weather History for KRDR - February, 2014

Change the Weather History Date:

Saturday, February 1, 2014

  Actual Average Record
Temperature  
Mean Temperature -2 °F -  
Max Temperature 5 °F 19 °F 40 °F (2012)
Min Temperature -8 °F 1 °F -20 °F (2013)
Degree Days  
Heating Degree Days 66    
Moisture  
Dew Point -6 °F    
Average Humidity 74    
Maximum Humidity 82    
Minimum Humidity 62    
Precipitation  
Precipitation 0.00 in - - ()
Sea Level Pressure  
Sea Level Pressure 30.08 in    
Wind  
Wind Speed 11 mph (NW)    
Max Wind Speed 21 mph    
Max Gust Speed 22 mph    
Visibility 10 miles    
Events Snow    
Averages and records for this station are not official NWS values.
T = Trace of Precipitation, MM = Missing Value Source: NWS Daily Summary

Daily Weather History Graph

Daily Weather History Graph

Search for Another Location

Airport or City:

Trip Planner

Search our weather history database for the weather conditions in past years. The results will help you decide how hot, cold, wet, or windy it might be!

Date:

Astronomy

Feb. 01, 2014 Rise Set
Actual Time 7:57 AM CST 5:29 PM CST
Civil Twilight 7:23 AM CST 6:03 PM CST
Nautical Twilight 6:46 AM CST 6:40 PM CST
Astronomical Twilight 6:10 AM CST 7:16 PM CST
Moon 8:34 AM CST (2/1) 8:22 PM CST (2/1)
Length of Visible Light 10h 39m
Length of Day
9h 32m
Waxing Crescent, 5% of the Moon is Illuminated
Feb 1
Waxing Crescent
Feb 6
First Quarter
Feb 14
Full
Feb 22
Last Quarter
Mar 1
New

Hourly Weather History & Observations

Time (CST) Temp. Windchill Dew Point Humidity Pressure Visibility Wind Dir Wind Speed Gust Speed Precip Events Conditions
12:58 AM -1.1 °F - -6.2 °F 79% 29.90 in 10.0 mi SSW 2.3 mph - N/A   Clear
1:58 AM -2.4 °F -14.4 °F -6.5 °F 82% 29.91 in 10.0 mi NW 5.8 mph - N/A   Scattered Clouds
2:58 AM 5.7 °F -13.2 °F 0.5 °F 79% 29.94 in 10.0 mi North 17.3 mph - N/A   Overcast
3:51 AM 5.0 °F -14.7 °F -0.4 °F 78% 29.88 in 10.0 mi North 18.4 mph - N/A Snow Light Snow
3:58 AM 5.4 °F -12.5 °F -0.8 °F 76% 29.97 in 10.0 mi North 15.0 mph - 0.00 in Snow Light Snow
4:00 AM 5.0 °F -12.3 °F -0.4 °F 78% 29.90 in 10.0 mi North 13.8 mph - N/A Snow Light Snow
4:03 AM 5.0 °F -13.6 °F -0.4 °F 78% 29.89 in 10.0 mi North 16.1 mph - N/A   Overcast
4:04 AM 5.0 °F -14.2 °F -0.4 °F 78% 29.90 in 10.0 mi North 17.3 mph - N/A Snow Light Snow
4:14 AM 5.0 °F -13.0 °F -0.4 °F 78% 29.90 in 10.0 mi North 15.0 mph - N/A Snow Light Snow
4:29 AM 5.0 °F -13.6 °F -2.2 °F 72% 29.92 in 10.0 mi North 16.1 mph - N/A Snow Light Snow
4:33 AM 3.2 °F -16.5 °F -2.2 °F 78% 29.92 in 10.0 mi North 17.3 mph - N/A   Overcast
4:43 AM 3.2 °F -15.9 °F -2.2 °F 78% 29.92 in 10.0 mi North 16.1 mph - N/A   Overcast
4:48 AM 3.2 °F -15.3 °F -2.2 °F 78% 29.92 in 10.0 mi North 15.0 mph - N/A   Overcast
4:53 AM 3.2 °F -17.1 °F -2.2 °F 78% 29.93 in 10.0 mi North 18.4 mph - N/A   Overcast
4:58 AM 3.6 °F -17.6 °F -2.2 °F 77% 30.01 in 10.0 mi North 20.7 mph - 0.00 in   Overcast
5:23 AM 3.2 °F -15.9 °F -4.0 °F 72% 29.95 in 10.0 mi North 16.1 mph 21.9 mph N/A   Overcast
5:58 AM 1.2 °F -16.4 °F -4.9 °F 75% 30.06 in 10.0 mi North 12.7 mph - N/A   Overcast
6:23 AM -0.4 °F -20.5 °F -5.8 °F 78% 29.98 in 10.0 mi North 16.1 mph - N/A   Overcast
6:28 AM -0.4 °F -21.7 °F -5.8 °F 78% 29.99 in 10.0 mi North 18.4 mph - N/A   Overcast
6:43 AM -0.4 °F -18.4 °F -7.6 °F 72% 29.99 in 10.0 mi North 12.7 mph - N/A   Overcast
6:48 AM -0.4 °F -17.6 °F -5.8 °F 78% 30.00 in 10.0 mi North 11.5 mph - N/A   Overcast
6:58 AM -0.4 °F -17.6 °F -6.5 °F 75% 30.09 in 10.0 mi North 11.5 mph - N/A   Overcast
7:08 AM -0.4 °F -18.4 °F -5.8 °F 78% 30.01 in 10.0 mi North 12.7 mph - N/A   Mostly Cloudy
7:58 AM -3.1 °F -19.1 °F -8.3 °F 78% 30.13 in 10.0 mi North 9.2 mph - N/A   Partly Cloudy
8:58 AM -2.2 °F -18.9 °F -9.0 °F 73% 30.16 in 10.0 mi NNW 10.4 mph - N/A   Clear
9:58 AM -0.9 °F -19.1 °F -9.0 °F 69% 30.17 in 10.0 mi NNW 12.7 mph - N/A   Clear
10:58 AM 0.3 °F -15.8 °F -8.1 °F 68% 30.19 in 10.0 mi NNW 10.4 mph - N/A   Clear
11:58 AM 2.5 °F -13.1 °F -6.5 °F 66% 30.20 in 10.0 mi NNW 10.4 mph - N/A   Clear
12:58 PM 3.4 °F -10.0 °F -6.2 °F 65% 30.11 in 10.0 mi NW 8.1 mph - N/A   Clear
1:58 PM 4.8 °F -7.1 °F -5.6 °F 62% 30.21 in 10.0 mi NW 6.9 mph - N/A   Overcast
2:58 PM 5.2 °F -6.7 °F -5.1 °F 63% 30.21 in 10.0 mi NW 6.9 mph - N/A   Partly Cloudy
3:58 PM 4.8 °F -9.3 °F -4.5 °F 65% 30.22 in 10.0 mi NW 9.2 mph - N/A   Overcast
4:58 PM 3.9 °F -6.9 °F -5.1 °F 66% 30.23 in 10.0 mi WNW 5.8 mph - N/A   Scattered Clouds
5:16 PM 1.4 °F -11.3 °F -5.8 °F 72% 30.14 in 10.0 mi West 6.9 mph - N/A Snow Light Snow
5:26 PM 1.4 °F -11.3 °F -5.8 °F 72% 30.15 in 10.0 mi West 6.9 mph - N/A   Mostly Cloudy
5:39 PM 1.4 °F -9.9 °F -5.8 °F 72% 30.15 in 10.0 mi WNW 5.8 mph - N/A Snow Light Snow
5:42 PM 1.4 °F -9.9 °F -5.8 °F 72% 30.15 in 10.0 mi West 5.8 mph - N/A Snow Light Snow
5:54 PM -0.4 °F -12.0 °F -7.6 °F 72% 30.15 in 10.0 mi West 5.8 mph - N/A   Overcast
5:58 PM 0.1 °F -9.7 °F -7.1 °F 72% 30.25 in 10.0 mi West 4.6 mph - 0.00 in   Overcast
6:58 PM -0.9 °F -15.3 °F -8.0 °F 72% 30.26 in 10.0 mi West 8.1 mph - N/A   Overcast
7:58 PM -2.2 °F -15.6 °F -8.9 °F 73% 30.26 in 10.0 mi West 6.9 mph - N/A   Partly Cloudy
8:58 PM -3.6 °F -12.0 °F -9.6 °F 76% 30.27 in 10.0 mi SW 3.5 mph - N/A   Clear
9:58 PM -7.2 °F -20.1 °F -13.0 °F 76% 30.26 in 10.0 mi West 5.8 mph - N/A   Overcast
10:58 PM -8.1 °F -21.2 °F -13.7 °F 77% 30.26 in 10.0 mi WSW 5.8 mph - N/A   Overcast
11:27 PM -7.6 °F -18.8 °F -13.0 °F 77% 30.16 in 10.0 mi WSW 4.6 mph - N/A Snow Light Snow
11:36 PM -5.8 °F -16.7 °F -13.0 °F 71% 30.15 in 10.0 mi WSW 4.6 mph - N/A   Overcast
11:58 PM -4.4 °F -16.7 °F -10.3 °F 76% 30.25 in 10.0 mi WSW 5.8 mph - 0.00 in   Overcast
11:59 PM -4.0 °F -16.3 °F -9.4 °F 78% 30.15 in 10.0 mi WSW 5.8 mph - N/A Snow Light Snow